Location: Newark
(15.4608°S, 41.1635°W)
Time: 16:06:23
(UTC+00:00)

N. Korean satellite - Visible Passes

Search period start: 20 June 2021 00:00
Search period end: 30 June 2021 00:00
Orbit: 450 x 500 km, 97.2° (Epoch: 19 June)

Date Brightness Start Highest point End Pass type
(mag) Time Alt. Az. Time Alt. Az. Time Alt. Az.
20 Jun 7.0 07:54:24 10° N 07:57:51 40° W 07:58:30 37° WSW visible
21 Jun 6.8 07:27:00 10° NNE 07:30:38 67° ESE 07:30:54 64° SE visible
22 Jun 8.8 07:00:28 10° NE 07:03:19 24° E 07:03:19 24° E visible
22 Jun 8.8 08:36:08 10° WNW 08:36:33 10° W 08:36:58 10° W visible
23 Jun 7.6 08:06:07 10° NNW 08:09:14 26° W 08:09:53 25° W visible
24 Jun 6.4 07:38:18 10° N 07:41:58 77° W 07:42:17 70° SW visible
25 Jun 8.1 07:11:22 10° NE 07:14:40 35° E 07:14:40 35° E visible
26 Jun 9.7 06:45:38 10° ENE 06:47:04 14° E 06:47:04 14° E visible
26 Jun 8.2 08:18:02 10° NW 08:20:35 18° W 08:21:13 17° W visible
27 Jun 6.8 07:49:44 10° N 07:53:17 48° W 07:53:36 46° W visible
28 Jun 7.2 07:22:25 10° NNE 07:25:59 56° E 07:25:59 56° E visible
29 Jun 9.1 06:56:03 10° NE 06:58:22 20° E 06:58:22 20° E visible
29 Jun 8.6 08:30:27 10° WNW 08:31:53 12° W 08:32:31 11° W visible
